Year,Month,Day,Hour,Minute,Value (Times are PST for temperature in C)
2006,04,16,00,00,4.60
2006,04,16,00,01,4.60
2006,04,16,00,02,4.60
2006,04,16,00,03,4.60
2006,04,16,00,04,4.60
2006,04,16,00,05,4.60
2006,04,16,00,06,4.60
2006,04,16,00,07,4.70
2006,04,16,00,08,4.70
2006,04,16,00,09,4.70
2006,04,16,00,10,4.70
2006,04,16,00,11,4.70
2006,04,16,00,12,4.70
2006,04,16,00,13,4.70
2006,04,16,00,14,4.80
2006,04,16,00,15,4.80
2006,04,16,00,16,4.80
2006,04,16,00,17,4.80
2006,04,16,00,18,4.80
2006,04,16,00,19,4.80
2006,04,16,00,20,4.80
2006,04,16,00,21,4.80
2006,04,16,00,22,4.80
2006,04,16,00,23,4.80
2006,04,16,00,24,4.80
2006,04,16,00,25,4.80
2006,04,16,00,26,4.80
2006,04,16,00,27,4.80
2006,04,16,00,28,4.80
2006,04,16,00,29,4.80
2006,04,16,00,30,4.80
2006,04,16,00,31,4.80
2006,04,16,00,32,4.80
2006,04,16,00,33,4.80
2006,04,16,00,34,4.80
2006,04,16,00,35,4.80
2006,04,16,00,36,4.80
2006,04,16,00,37,4.80
2006,04,16,00,38,4.80
2006,04,16,00,39,4.80
2006,04,16,00,40,4.80
2006,04,16,00,41,4.80
2006,04,16,00,42,4.80
2006,04,16,00,43,4.80
2006,04,16,00,44,4.80
2006,04,16,00,45,4.80
2006,04,16,00,46,4.70
2006,04,16,00,47,4.70
2006,04,16,00,48,4.70
2006,04,16,00,49,4.70
2006,04,16,00,50,4.60
2006,04,16,00,51,4.60
2006,04,16,00,52,4.60
2006,04,16,00,53,4.60
2006,04,16,00,54,4.60
2006,04,16,00,55,4.60
2006,04,16,00,56,4.50
2006,04,16,00,57,4.50
2006,04,16,00,58,4.50
2006,04,16,00,59,4.50
2006,04,16,01,00,4.50
2006,04,16,01,01,4.50
2006,04,16,01,02,4.50
2006,04,16,01,03,4.50
2006,04,16,01,04,4.50
2006,04,16,01,05,4.40
2006,04,16,01,06,4.40
2006,04,16,01,07,4.40
2006,04,16,01,08,4.30
2006,04,16,01,09,4.30
2006,04,16,01,10,4.30
2006,04,16,01,11,4.30
2006,04,16,01,12,4.20
2006,04,16,01,13,4.20
2006,04,16,01,14,4.20
2006,04,16,01,15,4.20
2006,04,16,01,16,4.10
2006,04,16,01,17,4.10
2006,04,16,01,18,4.10
2006,04,16,01,19,4.10
2006,04,16,01,20,4.10
2006,04,16,01,21,4.10
2006,04,16,01,22,4.10
2006,04,16,01,23,4.10
2006,04,16,01,24,4.10
2006,04,16,01,25,4.10
2006,04,16,01,26,4.10
2006,04,16,01,27,4.20
2006,04,16,01,28,4.20
2006,04,16,01,29,4.20
2006,04,16,01,30,4.20
2006,04,16,01,31,4.20
2006,04,16,01,32,4.20
2006,04,16,01,33,4.10
2006,04,16,01,34,4.10
2006,04,16,01,35,4.10
2006,04,16,01,36,4.10
2006,04,16,01,37,4.00
2006,04,16,01,38,4.00
2006,04,16,01,39,4.00
2006,04,16,01,40,4.00
2006,04,16,01,41,4.00
2006,04,16,01,42,4.00
2006,04,16,01,43,3.90
2006,04,16,01,44,3.90
2006,04,16,01,45,3.90
2006,04,16,01,46,3.90
2006,04,16,01,47,3.90
2006,04,16,01,48,3.90
2006,04,16,01,49,3.90
2006,04,16,01,50,4.00
2006,04,16,01,51,4.00
2006,04,16,01,52,4.00
2006,04,16,01,53,4.00
2006,04,16,01,54,4.00
2006,04,16,01,55,4.00
2006,04,16,01,56,4.10
2006,04,16,01,57,4.10
2006,04,16,01,58,4.20
2006,04,16,01,59,4.20
2006,04,16,02,00,4.20
2006,04,16,02,01,4.20
2006,04,16,02,02,4.20
2006,04,16,02,03,4.20
2006,04,16,02,04,4.20
2006,04,16,02,05,4.20
2006,04,16,02,06,4.20
2006,04,16,02,07,4.20
2006,04,16,02,08,4.20
2006,04,16,02,09,4.20
2006,04,16,02,10,4.20
2006,04,16,02,11,4.20
2006,04,16,02,12,4.20
2006,04,16,02,13,4.20
2006,04,16,02,14,4.10
2006,04,16,02,15,4.10
2006,04,16,02,16,4.10
2006,04,16,02,17,4.00
2006,04,16,02,18,4.00
2006,04,16,02,19,4.00
2006,04,16,02,20,4.00
2006,04,16,02,21,3.90
2006,04,16,02,22,3.90
2006,04,16,02,23,3.90
2006,04,16,02,24,3.80
2006,04,16,02,25,3.80
2006,04,16,02,26,3.80
2006,04,16,02,27,3.80
2006,04,16,02,28,3.80
2006,04,16,02,29,3.80
2006,04,16,02,30,3.80
2006,04,16,02,31,3.80
2006,04,16,02,32,3.80
2006,04,16,02,33,3.80
2006,04,16,02,34,3.80
2006,04,16,02,35,3.80
2006,04,16,02,36,3.80
2006,04,16,02,37,3.80
2006,04,16,02,38,3.80
2006,04,16,02,39,3.80
2006,04,16,02,40,3.80
2006,04,16,02,41,3.80
2006,04,16,02,42,3.80
2006,04,16,02,43,3.80
2006,04,16,02,44,3.80
2006,04,16,02,45,3.80
2006,04,16,02,46,3.80
2006,04,16,02,47,3.80
2006,04,16,02,48,3.80
2006,04,16,02,49,3.80
2006,04,16,02,50,3.70
2006,04,16,02,51,3.70
2006,04,16,02,52,3.70
2006,04,16,02,53,3.70
2006,04,16,02,54,3.60
2006,04,16,02,55,3.60
2006,04,16,02,56,3.60
2006,04,16,02,57,3.50
2006,04,16,02,58,3.50
2006,04,16,02,59,3.40
2006,04,16,03,00,3.30
2006,04,16,03,01,3.30
2006,04,16,03,02,3.30
2006,04,16,03,03,3.20
2006,04,16,03,04,3.20
2006,04,16,03,05,3.10
2006,04,16,03,06,3.10
2006,04,16,03,07,3.10
2006,04,16,03,08,3.00
2006,04,16,03,09,2.90
2006,04,16,03,10,2.90
2006,04,16,03,11,2.90
2006,04,16,03,12,2.90
2006,04,16,03,13,2.80
2006,04,16,03,14,2.80
2006,04,16,03,15,2.80
2006,04,16,03,16,2.70
2006,04,16,03,17,2.70
2006,04,16,03,18,2.70
2006,04,16,03,19,2.70
2006,04,16,03,20,2.70
2006,04,16,03,21,2.70
2006,04,16,03,22,2.70
2006,04,16,03,23,2.70
2006,04,16,03,24,2.70
2006,04,16,03,25,2.70
2006,04,16,03,26,2.70
2006,04,16,03,27,2.70
2006,04,16,03,28,2.70
2006,04,16,03,29,2.70
2006,04,16,03,30,2.70
2006,04,16,03,31,2.70
2006,04,16,03,32,2.70
2006,04,16,03,33,2.70
2006,04,16,03,34,2.70
2006,04,16,03,35,2.70
2006,04,16,03,36,2.70
2006,04,16,03,37,2.70
2006,04,16,03,38,2.70
2006,04,16,03,39,2.70
2006,04,16,03,40,2.70
2006,04,16,03,41,2.70
2006,04,16,03,42,2.70
2006,04,16,03,43,2.70
2006,04,16,03,44,2.70
2006,04,16,03,45,2.70
2006,04,16,03,46,2.70
2006,04,16,03,47,2.80
2006,04,16,03,48,2.70
2006,04,16,03,49,2.70
2006,04,16,03,50,2.70
2006,04,16,03,51,2.70
2006,04,16,03,52,2.80
2006,04,16,03,53,2.80
2006,04,16,03,54,2.80
2006,04,16,03,55,2.80
2006,04,16,03,56,2.80
2006,04,16,03,57,2.80
2006,04,16,03,58,2.80
2006,04,16,03,59,2.80
2006,04,16,04,00,2.80
2006,04,16,04,01,2.90
2006,04,16,04,02,2.90
2006,04,16,04,03,2.90
2006,04,16,04,04,2.90
2006,04,16,04,05,2.90
2006,04,16,04,06,2.80
2006,04,16,04,07,2.80
2006,04,16,04,08,2.80
2006,04,16,04,09,2.80
2006,04,16,04,10,2.80
2006,04,16,04,11,2.80
2006,04,16,04,12,2.80
2006,04,16,04,13,2.90
2006,04,16,04,14,2.90
2006,04,16,04,15,2.90
2006,04,16,04,16,2.90
2006,04,16,04,17,3.00
2006,04,16,04,18,3.10
2006,04,16,04,19,3.10
2006,04,16,04,20,3.10
2006,04,16,04,21,3.00
2006,04,16,04,22,2.90
2006,04,16,04,23,2.90
2006,04,16,04,24,2.90
2006,04,16,04,25,2.90
2006,04,16,04,26,2.90
2006,04,16,04,27,2.90
2006,04,16,04,28,2.90
2006,04,16,04,29,2.90
2006,04,16,04,30,2.90
2006,04,16,04,31,2.90
2006,04,16,04,32,2.80
2006,04,16,04,33,2.80
2006,04,16,04,34,2.70
2006,04,16,04,35,2.70
2006,04,16,04,36,2.70
2006,04,16,04,37,2.70
2006,04,16,04,38,2.70
2006,04,16,04,39,2.70
2006,04,16,04,40,2.70
2006,04,16,04,41,2.70
2006,04,16,04,42,2.70
2006,04,16,04,43,2.70
2006,04,16,04,44,2.70
2006,04,16,04,45,2.70
2006,04,16,04,46,2.70
2006,04,16,04,47,2.70
2006,04,16,04,48,2.70
2006,04,16,04,49,2.70
2006,04,16,04,50,2.80
2006,04,16,04,51,2.80
2006,04,16,04,52,2.70
2006,04,16,04,53,2.70
2006,04,16,04,54,2.70
2006,04,16,04,55,2.70
2006,04,16,04,56,2.70
2006,04,16,04,57,2.70
2006,04,16,04,58,2.70
2006,04,16,04,59,2.70
2006,04,16,05,00,2.70
2006,04,16,05,01,2.70
2006,04,16,05,02,2.70
2006,04,16,05,03,2.70
2006,04,16,05,04,2.70
2006,04,16,05,05,2.70
2006,04,16,05,06,2.70
2006,04,16,05,07,2.70
2006,04,16,05,08,2.70
2006,04,16,05,09,2.70
2006,04,16,05,10,2.70
2006,04,16,05,11,2.80
2006,04,16,05,12,2.80
2006,04,16,05,13,2.90
2006,04,16,05,14,2.90
2006,04,16,05,15,2.90
2006,04,16,05,16,2.90
2006,04,16,05,17,2.90
2006,04,16,05,18,2.90
2006,04,16,05,19,2.90
2006,04,16,05,20,2.90
2006,04,16,05,21,2.90
2006,04,16,05,22,2.90
2006,04,16,05,23,2.90
2006,04,16,05,24,2.90
2006,04,16,05,25,2.90
2006,04,16,05,26,2.90
2006,04,16,05,27,2.90
2006,04,16,05,28,2.80
2006,04,16,05,29,2.80
2006,04,16,05,30,2.80
2006,04,16,05,31,2.80
2006,04,16,05,32,2.80
2006,04,16,05,33,2.80
2006,04,16,05,34,2.80
2006,04,16,05,35,2.80
2006,04,16,05,36,2.80
2006,04,16,05,37,2.80
2006,04,16,05,38,2.80
2006,04,16,05,39,2.80
2006,04,16,05,40,2.80
2006,04,16,05,41,2.80
2006,04,16,05,42,2.80
2006,04,16,05,43,2.80
2006,04,16,05,44,2.80
2006,04,16,05,45,2.80
2006,04,16,05,46,2.80
2006,04,16,05,47,2.80
2006,04,16,05,48,2.80
2006,04,16,05,49,2.80
2006,04,16,05,50,2.80
2006,04,16,05,51,2.90
2006,04,16,05,52,2.90
2006,04,16,05,53,2.90
2006,04,16,05,54,2.90
2006,04,16,05,55,2.90
2006,04,16,05,56,2.90
2006,04,16,05,57,2.90
2006,04,16,05,58,2.90
2006,04,16,05,59,2.90
2006,04,16,06,00,3.00
2006,04,16,06,01,3.10
2006,04,16,06,02,3.10
2006,04,16,06,03,3.10
2006,04,16,06,04,3.10
2006,04,16,06,05,3.10
2006,04,16,06,06,3.20
2006,04,16,06,07,3.20
2006,04,16,06,08,3.20
2006,04,16,06,09,3.20
2006,04,16,06,10,3.20
2006,04,16,06,11,3.20
2006,04,16,06,12,3.20
2006,04,16,06,13,3.20
2006,04,16,06,14,3.20
2006,04,16,06,15,3.20
2006,04,16,06,16,3.20
2006,04,16,06,17,3.10
2006,04,16,06,18,3.10
2006,04,16,06,19,3.10
2006,04,16,06,20,3.10
2006,04,16,06,21,3.10
2006,04,16,06,22,3.10
2006,04,16,06,23,3.10
2006,04,16,06,24,3.10
2006,04,16,06,25,3.10
2006,04,16,06,26,3.10
2006,04,16,06,27,3.10
2006,04,16,06,28,3.10
2006,04,16,06,29,3.10
2006,04,16,06,30,3.10
2006,04,16,06,31,3.10
2006,04,16,06,32,3.10
2006,04,16,06,33,3.10
2006,04,16,06,34,3.10
2006,04,16,06,35,2.90
2006,04,16,06,36,2.90
2006,04,16,06,37,2.90
2006,04,16,06,38,2.90
2006,04,16,06,39,2.90
2006,04,16,06,40,2.90
2006,04,16,06,41,2.90
2006,04,16,06,42,3.00
2006,04,16,06,43,3.10
2006,04,16,06,44,3.10
2006,04,16,06,45,3.10
2006,04,16,06,46,3.20
2006,04,16,06,47,3.30
2006,04,16,06,48,3.30
2006,04,16,06,49,3.40
2006,04,16,06,50,3.50
2006,04,16,06,51,3.50
2006,04,16,06,52,3.50
2006,04,16,06,53,3.60
2006,04,16,06,54,3.60
2006,04,16,06,55,3.60
2006,04,16,06,56,3.70
2006,04,16,06,57,3.70
2006,04,16,06,58,3.70
2006,04,16,06,59,3.60
2006,04,16,07,00,3.50
2006,04,16,07,01,3.50
2006,04,16,07,02,3.40
2006,04,16,07,03,3.30
2006,04,16,07,04,3.30
2006,04,16,07,05,3.30
2006,04,16,07,06,3.30
2006,04,16,07,07,3.30
2006,04,16,07,08,3.30
2006,04,16,07,09,3.30
2006,04,16,07,10,3.30
2006,04,16,07,11,3.30
2006,04,16,07,12,3.30
2006,04,16,07,13,3.30
2006,04,16,07,14,3.40
2006,04,16,07,15,3.40
2006,04,16,07,16,3.50
2006,04,16,07,17,3.60
2006,04,16,07,18,3.60
2006,04,16,07,19,3.80
2006,04,16,07,20,3.80
2006,04,16,07,21,3.90
2006,04,16,07,22,3.90
2006,04,16,07,23,3.80
2006,04,16,07,24,3.80
2006,04,16,07,25,3.70
2006,04,16,07,26,3.70
2006,04,16,07,27,3.70
2006,04,16,07,28,3.60
2006,04,16,07,29,3.60
2006,04,16,07,30,3.60
2006,04,16,07,31,3.60
2006,04,16,07,32,3.60
2006,04,16,07,33,3.60
2006,04,16,07,34,3.70
2006,04,16,07,35,3.70
2006,04,16,07,36,3.80
2006,04,16,07,37,3.90
2006,04,16,07,38,4.00
2006,04,16,07,39,4.10
2006,04,16,07,40,4.20
2006,04,16,07,41,4.30
2006,04,16,07,42,4.40
2006,04,16,07,43,4.50
2006,04,16,07,44,4.60
2006,04,16,07,45,4.60
2006,04,16,07,46,4.60
2006,04,16,07,47,4.70
2006,04,16,07,48,4.70
2006,04,16,07,49,4.80
2006,04,16,07,50,4.80
2006,04,16,07,51,4.90
2006,04,16,07,52,4.90
2006,04,16,07,53,4.90
2006,04,16,07,54,4.90
2006,04,16,07,55,4.90
2006,04,16,07,56,5.10
2006,04,16,07,57,5.10
2006,04,16,07,58,5.10
2006,04,16,07,59,5.10
2006,04,16,08,00,5.10
2006,04,16,08,01,5.10
2006,04,16,08,02,5.10
2006,04,16,08,03,5.10
2006,04,16,08,04,5.10
2006,04,16,08,05,5.20
2006,04,16,08,06,5.20
2006,04,16,08,07,5.30
2006,04,16,08,08,5.30
2006,04,16,08,09,5.30
2006,04,16,08,10,5.40
2006,04,16,08,11,5.60
2006,04,16,08,12,5.60
2006,04,16,08,13,5.80
2006,04,16,08,14,6.00
2006,04,16,08,15,6.00
2006,04,16,08,16,6.10
2006,04,16,08,17,6.20
2006,04,16,08,18,6.20
2006,04,16,08,19,6.20
2006,04,16,08,20,6.30
2006,04,16,08,21,6.40
2006,04,16,08,22,6.40
2006,04,16,08,23,6.50
2006,04,16,08,24,6.60
2006,04,16,08,25,6.60
2006,04,16,08,26,6.60
2006,04,16,08,27,6.60
2006,04,16,08,28,6.60
2006,04,16,08,29,6.60
2006,04,16,08,30,6.70
2006,04,16,08,31,6.80
2006,04,16,08,32,6.80
2006,04,16,08,33,6.70
2006,04,16,08,34,6.80
2006,04,16,08,35,6.70
2006,04,16,08,36,6.70
2006,04,16,08,37,6.70
2006,04,16,08,38,6.60
2006,04,16,08,39,6.60
2006,04,16,08,40,6.60
2006,04,16,08,41,6.70
2006,04,16,08,42,6.70
2006,04,16,08,43,6.70
2006,04,16,08,44,6.70
2006,04,16,08,45,6.70
2006,04,16,08,46,6.60
2006,04,16,08,47,6.50
2006,04,16,08,48,6.40
2006,04,16,08,49,6.40
2006,04,16,08,50,6.40
2006,04,16,08,51,6.40
2006,04,16,08,52,6.40
2006,04,16,08,53,6.40
2006,04,16,08,54,6.40
2006,04,16,08,55,6.30
2006,04,16,08,56,6.30
2006,04,16,08,57,6.20
2006,04,16,08,58,6.20
2006,04,16,08,59,6.20
2006,04,16,09,00,6.20
2006,04,16,09,01,6.20
2006,04,16,09,02,6.20
2006,04,16,09,03,6.20
2006,04,16,09,04,6.20
2006,04,16,09,05,6.20
2006,04,16,09,06,6.10
2006,04,16,09,07,6.10
2006,04,16,09,08,6.10
2006,04,16,09,09,6.10
2006,04,16,09,10,6.10
2006,04,16,09,11,6.10
2006,04,16,09,12,6.10
2006,04,16,09,13,6.10
2006,04,16,09,14,6.10
2006,04,16,09,15,6.20
2006,04,16,09,16,6.20
2006,04,16,09,17,6.20
2006,04,16,09,18,6.20
2006,04,16,09,19,6.20
2006,04,16,09,20,6.20
2006,04,16,09,21,6.20
2006,04,16,09,22,6.20
2006,04,16,09,23,6.20
2006,04,16,09,24,6.30
2006,04,16,09,25,6.30
2006,04,16,09,26,6.30
2006,04,16,09,27,6.30
2006,04,16,09,28,6.40
2006,04,16,09,29,6.40
2006,04,16,09,30,6.40
2006,04,16,09,31,6.40
2006,04,16,09,32,6.40
2006,04,16,09,33,6.50
2006,04,16,09,34,6.60
2006,04,16,09,35,6.60
2006,04,16,09,36,6.60
2006,04,16,09,37,6.70
2006,04,16,09,38,6.70
2006,04,16,09,39,6.80
2006,04,16,09,40,6.80
2006,04,16,09,41,6.80
2006,04,16,09,42,6.80
2006,04,16,09,43,6.90
2006,04,16,09,44,7.10
2006,04,16,09,45,7.20
2006,04,16,09,46,7.20
2006,04,16,09,47,7.20
2006,04,16,09,48,7.20
2006,04,16,09,49,7.20
2006,04,16,09,50,7.10
2006,04,16,09,51,7.20
2006,04,16,09,52,7.30
2006,04,16,09,53,7.30
2006,04,16,09,54,7.30
2006,04,16,09,55,7.40
2006,04,16,09,56,7.50
2006,04,16,09,57,7.50
2006,04,16,09,58,7.60
2006,04,16,09,59,7.60
2006,04,16,10,00,7.60
2006,04,16,10,01,7.50
2006,04,16,10,02,7.50
2006,04,16,10,03,7.50
2006,04,16,10,04,7.50
2006,04,16,10,05,7.50
2006,04,16,10,06,7.50
2006,04,16,10,07,7.60
2006,04,16,10,08,7.60
2006,04,16,10,09,7.60
2006,04,16,10,10,7.60
2006,04,16,10,11,7.70
2006,04,16,10,12,7.80
2006,04,16,10,13,7.80
2006,04,16,10,14,7.90
2006,04,16,10,15,7.90
2006,04,16,10,16,7.90
2006,04,16,10,17,7.80
2006,04,16,10,18,7.70
2006,04,16,10,19,7.60
2006,04,16,10,20,7.50
2006,04,16,10,21,7.50
2006,04,16,10,22,7.60
2006,04,16,10,23,7.50
2006,04,16,10,24,7.50
2006,04,16,10,25,7.50
2006,04,16,10,26,7.50
2006,04,16,10,27,7.60
2006,04,16,10,28,7.60
2006,04,16,10,29,7.50
2006,04,16,10,30,7.40
2006,04,16,10,31,7.30
2006,04,16,10,32,7.30
2006,04,16,10,33,7.30
2006,04,16,10,34,7.30
2006,04,16,10,35,7.30
2006,04,16,10,36,7.30
2006,04,16,10,37,7.30
2006,04,16,10,38,7.40
2006,04,16,10,39,7.40
2006,04,16,10,40,7.40
2006,04,16,10,41,7.30
2006,04,16,10,42,7.30
2006,04,16,10,43,7.30
2006,04,16,10,44,7.30
2006,04,16,10,45,7.20
2006,04,16,10,46,7.20
2006,04,16,10,47,7.20
2006,04,16,10,48,7.20
2006,04,16,10,49,7.20
2006,04,16,10,50,7.20
2006,04,16,10,51,7.30
2006,04,16,10,52,7.30
2006,04,16,10,53,7.30
2006,04,16,10,54,7.30
2006,04,16,10,55,7.30
2006,04,16,10,56,7.30
2006,04,16,10,57,7.30
2006,04,16,10,58,7.30
2006,04,16,10,59,7.30
2006,04,16,11,00,7.20
2006,04,16,11,01,7.20
2006,04,16,11,02,7.20
2006,04,16,11,03,7.10
2006,04,16,11,04,7.10
2006,04,16,11,05,7.10
2006,04,16,11,06,7.10
2006,04,16,11,07,7.30
2006,04,16,11,08,7.30
2006,04,16,11,09,7.30
2006,04,16,11,10,7.40
2006,04,16,11,11,7.30
2006,04,16,11,12,7.30
2006,04,16,11,13,7.40
2006,04,16,11,14,7.50
2006,04,16,11,15,7.60
2006,04,16,11,16,7.70
2006,04,16,11,17,7.80
2006,04,16,11,18,7.80
2006,04,16,11,19,7.80
2006,04,16,11,20,7.90
2006,04,16,11,21,7.90
2006,04,16,11,22,7.90
2006,04,16,11,23,7.90
2006,04,16,11,24,8.00
2006,04,16,11,25,8.10
2006,04,16,11,26,8.10
2006,04,16,11,27,8.20
2006,04,16,11,28,8.20
2006,04,16,11,29,8.10
2006,04,16,11,30,8.10
2006,04,16,11,31,8.20
2006,04,16,11,32,8.20
2006,04,16,11,33,8.20
2006,04,16,11,34,8.20
2006,04,16,11,35,8.50
2006,04,16,11,36,8.40
2006,04,16,11,37,8.40
2006,04,16,11,38,8.40
2006,04,16,11,39,8.50
2006,04,16,11,40,8.60
2006,04,16,11,41,8.70
2006,04,16,11,42,8.80
2006,04,16,11,43,9.00
2006,04,16,11,44,9.00
2006,04,16,11,45,9.00
2006,04,16,11,46,9.10
2006,04,16,11,47,9.20
2006,04,16,11,48,9.30
2006,04,16,11,49,9.30
2006,04,16,11,50,9.20
2006,04,16,11,51,9.10
2006,04,16,11,52,9.00
2006,04,16,11,53,9.00
2006,04,16,11,54,8.90
2006,04,16,11,55,9.10
2006,04,16,11,56,9.30
2006,04,16,11,57,9.50
2006,04,16,11,58,9.50
2006,04,16,11,59,9.50
2006,04,16,12,00,9.50
2006,04,16,12,01,9.50
2006,04,16,12,02,9.50
2006,04,16,12,03,9.30
2006,04,16,12,04,9.10
2006,04,16,12,05,9.00
2006,04,16,12,06,8.90
2006,04,16,12,07,8.90
2006,04,16,12,08,9.00
2006,04,16,12,09,9.00
2006,04,16,12,10,9.00
2006,04,16,12,11,9.00
2006,04,16,12,12,8.90
2006,04,16,12,13,8.90
2006,04,16,12,14,9.00
2006,04,16,12,15,9.10
2006,04,16,12,16,9.10
2006,04,16,12,17,9.00
2006,04,16,12,18,9.10
2006,04,16,12,19,9.10
2006,04,16,12,20,9.00
2006,04,16,12,21,8.90
2006,04,16,12,22,8.70
2006,04,16,12,23,8.70
2006,04,16,12,24,8.70
2006,04,16,12,25,8.70
2006,04,16,12,26,8.70
2006,04,16,12,27,8.70
2006,04,16,12,28,8.80
2006,04,16,12,29,8.90
2006,04,16,12,30,8.90
2006,04,16,12,31,8.90
2006,04,16,12,32,8.90
2006,04,16,12,33,8.90
2006,04,16,12,34,9.00
2006,04,16,12,35,9.00
2006,04,16,12,36,9.00
2006,04,16,12,37,9.00
2006,04,16,12,38,9.00
2006,04,16,12,39,9.00
2006,04,16,12,40,9.00
2006,04,16,12,41,9.10
2006,04,16,12,42,9.10
2006,04,16,12,43,9.10
2006,04,16,12,44,9.10
2006,04,16,12,45,9.10
2006,04,16,12,46,9.20
2006,04,16,12,47,9.10
2006,04,16,12,48,9.10
2006,04,16,12,49,9.30
2006,04,16,12,50,9.40
2006,04,16,12,51,9.30
2006,04,16,12,52,9.30
2006,04,16,12,53,9.40
2006,04,16,12,54,9.40
2006,04,16,12,55,9.40
2006,04,16,12,56,9.50
2006,04,16,12,57,9.60
2006,04,16,12,58,9.70
2006,04,16,12,59,9.70
2006,04,16,13,00,9.70
2006,04,16,13,01,9.70
2006,04,16,13,02,9.70
2006,04,16,13,03,9.70
2006,04,16,13,04,9.70
2006,04,16,13,05,9.60
2006,04,16,13,06,9.50
2006,04,16,13,07,9.50
2006,04,16,13,08,9.50
2006,04,16,13,09,9.50
2006,04,16,13,10,9.50
2006,04,16,13,11,9.50
2006,04,16,13,12,9.50
2006,04,16,13,13,9.60
2006,04,16,13,14,9.60
2006,04,16,13,15,9.60
2006,04,16,13,16,9.70
2006,04,16,13,17,9.70
2006,04,16,13,18,9.80
2006,04,16,13,19,9.90
2006,04,16,13,20,9.90
2006,04,16,13,21,9.90
2006,04,16,13,22,9.90
2006,04,16,13,23,9.90
2006,04,16,13,24,9.90
2006,04,16,13,25,10.00
2006,04,16,13,26,10.40
2006,04,16,13,27,10.60
2006,04,16,13,28,10.60
2006,04,16,13,29,10.60
2006,04,16,13,30,10.60
2006,04,16,13,31,10.50
2006,04,16,13,32,10.40
2006,04,16,13,33,10.40
2006,04,16,13,34,10.40
2006,04,16,13,35,10.30
2006,04,16,13,36,10.10
2006,04,16,13,37,10.10
2006,04,16,13,38,10.10
2006,04,16,13,39,10.10
2006,04,16,13,40,10.10
2006,04,16,13,41,10.10
2006,04,16,13,42,10.10
2006,04,16,13,43,10.10
2006,04,16,13,44,10.20
2006,04,16,13,45,10.10
2006,04,16,13,46,10.10
2006,04,16,13,47,10.10
2006,04,16,13,48,10.10
2006,04,16,13,49,10.10
2006,04,16,13,50,10.10
2006,04,16,13,51,10.20
2006,04,16,13,52,10.30
2006,04,16,13,53,10.40
2006,04,16,13,54,10.50
2006,04,16,13,55,10.50
2006,04,16,13,56,10.40
2006,04,16,13,57,10.40
2006,04,16,13,58,10.30
2006,04,16,13,59,10.30
2006,04,16,14,00,10.40
2006,04,16,14,01,10.60
2006,04,16,14,02,10.80
2006,04,16,14,03,10.90
2006,04,16,14,04,10.90
2006,04,16,14,05,10.90
2006,04,16,14,06,10.90
2006,04,16,14,07,10.80
2006,04,16,14,08,10.70
2006,04,16,14,09,10.70
2006,04,16,14,10,10.70
2006,04,16,14,11,10.70
2006,04,16,14,12,10.80
2006,04,16,14,13,10.80
2006,04,16,14,14,10.90
2006,04,16,14,15,11.00
2006,04,16,14,16,11.00
2006,04,16,14,17,10.90
2006,04,16,14,18,11.10
2006,04,16,14,19,11.10
2006,04,16,14,20,11.20
2006,04,16,14,21,11.10
2006,04,16,14,22,11.00
2006,04,16,14,23,10.80
2006,04,16,14,24,10.70
2006,04,16,14,25,10.70
2006,04,16,14,26,10.70
2006,04,16,14,27,10.80
2006,04,16,14,28,10.90
2006,04,16,14,29,10.80
2006,04,16,14,30,10.80
2006,04,16,14,31,10.90
2006,04,16,14,32,10.90
2006,04,16,14,33,10.80
2006,04,16,14,34,10.90
2006,04,16,14,35,10.90
2006,04,16,14,36,10.80
2006,04,16,14,37,10.80
2006,04,16,14,38,10.70
2006,04,16,14,39,10.70
2006,04,16,14,40,10.70
2006,04,16,14,41,10.80
2006,04,16,14,42,10.90
2006,04,16,14,43,10.90
2006,04,16,14,44,11.00
2006,04,16,14,45,11.10
2006,04,16,14,46,11.20
2006,04,16,14,47,11.30
2006,04,16,14,48,11.30
2006,04,16,14,49,11.40
2006,04,16,14,50,11.60
2006,04,16,14,51,11.70
2006,04,16,14,52,11.70
2006,04,16,14,53,11.60
2006,04,16,14,54,11.50
2006,04,16,14,55,11.40
2006,04,16,14,56,11.20
2006,04,16,14,57,11.20
2006,04,16,14,58,11.20
2006,04,16,14,59,11.20
2006,04,16,15,00,11.10
2006,04,16,15,01,11.20
2006,04,16,15,02,11.20
2006,04,16,15,03,11.20
2006,04,16,15,04,11.00
2006,04,16,15,05,10.90
2006,04,16,15,06,10.90
2006,04,16,15,07,10.80
2006,04,16,15,08,10.70
2006,04,16,15,09,10.70
2006,04,16,15,10,10.80
2006,04,16,15,11,10.80
2006,04,16,15,12,10.90
2006,04,16,15,13,10.90
2006,04,16,15,14,10.90
2006,04,16,15,15,10.90
2006,04,16,15,16,10.80
2006,04,16,15,17,10.70
2006,04,16,15,18,10.70
2006,04,16,15,19,10.70
2006,04,16,15,20,10.70
2006,04,16,15,21,10.60
2006,04,16,15,22,10.60
2006,04,16,15,23,10.60
2006,04,16,15,24,10.50
2006,04,16,15,25,10.40
2006,04,16,15,26,10.40
2006,04,16,15,27,10.40
2006,04,16,15,28,10.40
2006,04,16,15,29,10.50
2006,04,16,15,30,10.60
2006,04,16,15,31,10.60
2006,04,16,15,32,10.60
2006,04,16,15,33,10.60
2006,04,16,15,34,10.60
2006,04,16,15,35,10.60
2006,04,16,15,36,10.60
2006,04,16,15,37,10.60
2006,04,16,15,38,10.60
2006,04,16,15,39,10.70
2006,04,16,15,40,10.70
2006,04,16,15,41,10.80
2006,04,16,15,42,10.80
2006,04,16,15,43,10.90
2006,04,16,15,44,10.90
2006,04,16,15,45,10.90
2006,04,16,15,46,10.90
2006,04,16,15,47,10.90
2006,04,16,15,48,10.90
2006,04,16,15,49,11.00
2006,04,16,15,50,11.00
2006,04,16,15,51,10.90
2006,04,16,15,52,10.90
2006,04,16,15,53,10.70
2006,04,16,15,54,10.60
2006,04,16,15,55,10.50
2006,04,16,15,56,10.40
2006,04,16,15,57,10.40
2006,04,16,15,58,10.40
2006,04,16,15,59,10.30
2006,04,16,16,00,10.20
2006,04,16,16,01,10.10
2006,04,16,16,02,10.00
2006,04,16,16,03,9.90
2006,04,16,16,04,9.90
2006,04,16,16,05,9.90
2006,04,16,16,06,9.90
2006,04,16,16,07,9.90
2006,04,16,16,08,9.90
2006,04,16,16,09,9.90
2006,04,16,16,10,9.90
2006,04,16,16,11,9.90
2006,04,16,16,12,9.90
2006,04,16,16,13,9.90
2006,04,16,16,14,9.90
2006,04,16,16,15,9.90
2006,04,16,16,16,10.00
2006,04,16,16,17,10.10
2006,04,16,16,18,10.10
2006,04,16,16,19,10.10
2006,04,16,16,20,10.00
2006,04,16,16,21,9.90
2006,04,16,16,22,9.90
2006,04,16,16,23,9.90
2006,04,16,16,24,9.90
2006,04,16,16,25,9.80
2006,04,16,16,26,9.80
2006,04,16,16,27,9.80
2006,04,16,16,28,9.80
2006,04,16,16,29,9.80
2006,04,16,16,30,9.90
2006,04,16,16,31,9.90
2006,04,16,16,32,9.80
2006,04,16,16,33,9.80
2006,04,16,16,34,9.80
2006,04,16,16,35,9.80
2006,04,16,16,36,9.90
2006,04,16,16,37,9.90
2006,04,16,16,38,9.90
2006,04,16,16,39,9.90
2006,04,16,16,40,9.90
2006,04,16,16,41,9.90
2006,04,16,16,42,9.90
2006,04,16,16,43,9.90
2006,04,16,16,44,9.90
2006,04,16,16,45,9.90
2006,04,16,16,46,9.90
2006,04,16,16,47,9.90
2006,04,16,16,48,9.90
2006,04,16,16,49,9.90
2006,04,16,16,50,9.90
2006,04,16,16,51,9.90
2006,04,16,16,52,9.90
2006,04,16,16,53,9.90
2006,04,16,16,54,10.00
2006,04,16,16,55,10.10
2006,04,16,16,56,10.10
2006,04,16,16,57,10.10
2006,04,16,16,58,10.10
2006,04,16,16,59,10.10
2006,04,16,17,00,10.10
2006,04,16,17,01,10.10
2006,04,16,17,02,10.20
2006,04,16,17,03,10.30
2006,04,16,17,04,10.30
2006,04,16,17,05,10.40
2006,04,16,17,06,10.60
2006,04,16,17,07,10.60
2006,04,16,17,08,10.60
2006,04,16,17,09,10.60
2006,04,16,17,10,10.60
2006,04,16,17,11,10.60
2006,04,16,17,12,10.60
2006,04,16,17,13,10.60
2006,04,16,17,14,10.60
2006,04,16,17,15,10.70
2006,04,16,17,16,10.70
2006,04,16,17,17,10.70
2006,04,16,17,18,10.70
2006,04,16,17,19,10.70
2006,04,16,17,20,10.70
2006,04,16,17,21,10.70
2006,04,16,17,22,10.70
2006,04,16,17,23,10.70
2006,04,16,17,24,10.70
2006,04,16,17,25,10.60
2006,04,16,17,26,10.60
2006,04,16,17,27,10.60
2006,04,16,17,28,10.60
2006,04,16,17,29,10.60
2006,04,16,17,30,10.60
2006,04,16,17,31,10.70
2006,04,16,17,32,10.80
2006,04,16,17,33,10.80
2006,04,16,17,34,10.80
2006,04,16,17,35,10.80
2006,04,16,17,36,10.80
2006,04,16,17,37,10.80
2006,04,16,17,38,10.80
2006,04,16,17,39,10.80
2006,04,16,17,40,10.90
2006,04,16,17,41,10.90
2006,04,16,17,42,10.90
2006,04,16,17,43,10.90
2006,04,16,17,44,11.00
2006,04,16,17,45,11.10
2006,04,16,17,46,11.20
2006,04,16,17,47,11.30
2006,04,16,17,48,11.30
2006,04,16,17,49,11.30
2006,04,16,17,50,11.20
2006,04,16,17,51,11.20
2006,04,16,17,52,11.20
2006,04,16,17,53,11.20
2006,04,16,17,54,11.20
2006,04,16,17,55,11.20
2006,04,16,17,56,11.20